Powrót do katalogu

CZ-6A DEB

AktywnySSO
NORAD 54580·DEBRIS·🇨🇳 China

Wystrzelony Nov 11, 2022 z Taiyuan Satellite Launch Center

Loading…

Następne Przeloty (najbliższe 24 godziny)

TLE

ŚwieżeSource: Space-Track

Epoka: Sep 14, 2026, 11:56 UTC

1 54580U 22151MG  26257.49779474  .00003529  00000-0  14715-2 0  9995
2 54580  98.8598 273.9923 0087984 104.6713 256.4239 14.24798655197531

Śledź CZ-6A DEB w czasie rzeczywistym z AllMySat

Download on the App Store